Location: Unnamed
(42.1164°N, 2.7652°E)
Time: 20:21:59
(UTC+02:00)

ISS - Pass Details

Date: 06 May 2021
Orbit: 417 x 422 km, 51.6° (Epoch: 14 June)

Event Time Altitude Azimuth Distance (km) Brightness Sun altitude
Exits shadow 02:46:18 11° 54° (NE) 1,438 -0.5 -29.7°
Drops below altitude 10° 02:46:28 10° 54° (NE) 1,508 -0.3 -29.7°
Sets 02:48:35 0° 56° (NE) 2,376 0.8 -29.6°
